Location: New Canada
(47.1017°N, 68.5042°W)
Time: 15:49:07
(UTC+00:00)

RS-44 - Pass Details

Date: 16 April 2024
Orbit: 1174 x 1511 km, 82.5° (Epoch: 20 May)

Event Time Altitude Azimuth Distance (km) Brightness Sun altitude
Rises 00:55:10 0° 184° (S) 4,639 ? -14.9°
Reaches altitude 10° 00:58:04 10° 184° (S) 3,662 ? -15.3°
Maximum altitude 01:07:00 86° 97° (E) 1,497 ? -16.5°
Drops below altitude 10° 01:15:37 10° 10° (N) 3,547 ? -17.7°
Sets 01:18:24 0° 11° (N) 4,487 ? -18.1°
